{"data":{"norad_id":66210,"epoch":"2026-09-20T16:04:27.161184Z","epoch_age_seconds":81990,"freshness":"FRESH","line1":"1 66210U 25244E   26263.66975881  .00022927  00000+0  68751-3 0  9992","line2":"2 66210  53.1600  40.5804 0001329  71.2535 288.8612 15.34404381 51566","mean_motion":15.34404381,"eccentricity":0.0001329,"inclination_deg":53.16,"raan_deg":40.5804,"arg_perigee_deg":71.2535,"mean_anomaly_deg":288.8612,"bstar":0.00068751,"rev_number":5156,"period_min":93.847490129136,"perigee_km":461.78107304543,"apogee_km":463.59936492024,"semimajor_km":6840.8272189828,"source":"CELESTRAK","updated_at":"2026-09-21T09:00:35.840267Z"}}